Regional Weather Roundup
Issued by NWS

Home | Current Version | Previous Version | Text Only | Print | Product List | Glossary On
Versions: 1 2 3 4 5 6 7 8 9 10 11 12 13 14 15 16 17 18 19 20 21 22 23 24 25 26 27 28 29 30 31 32 33 34 35 36 37 38 39 40 41 42 43 44 45 46 47 48 49 50
000
ASUS43 KLSX 271407
RWRMO

WEATHER SUMMARY FOR MISSOURI
NATIONAL WEATHER SERVICE SPRINGFIELD MO
900 AM CDT WED MAY 27 2015

NOTE: "FAIR" INDICATES FEW OR NO CLOUDS BELOW 12,000 FEET WITH NO
       SIGNIFICANT WEATHER AND/OR OBSTRUCTIONS TO VISIBILITY.
       CURRENT SKY AND/OR WEATHER CONDITIONS ARE NOT AVAILABLE FOR
       CHILLICOTHE AND FARMINGTON.

MOZ001>031-035>038-043-044-053-054-271500-
...NORTHERN AND WESTERN MISSOURI...

CITY           SKY/WX    TMP DP  RH WIND       PRES   REMARKS
KANSAS CTY INT MOSUNNY   68  57  68 NW5       30.08R
KANSAS C DTWN  SUNNY     70  56  61 CALM      30.07R
LEE`S SUMMIT   SUNNY     70  57  63 VRB3      30.09R
ST JOSEPH      SUNNY     67  57  70 CALM      30.07R
CHILLICOTHE      N/A     68  58  70 VRB3      30.07R
KIRKSVILLE     SUNNY     67  59  75 W6        30.06R

$$
MOZ066>068-077>081-088>096-101>105-271500-
...SOUTHWEST MISSOURI...

CITY           SKY/WX    TMP DP  RH WIND       PRES   REMARKS
SPRINGFIELD    LGT RAIN  68  65  90 NW6       30.10S
JOPLIN         MOSUNNY   71  67  87 VRB6      30.09F

$$
MOZ032>034-039>042-045>050-055>058-069>072-271500-
...CENTRAL MISSOURI...

CITY           SKY/WX    TMP DP  RH WIND       PRES   REMARKS
COLUMBIA       PTSUNNY   71  63  75 W7        30.07S
JEFFERSON CITY PTSUNNY   70  62  76 NW7       30.06R
ROLLA          CLOUDY    65  63  93 S9        30.08R
SEDALIA        SUNNY     72  61  68 VRB3      30.09R
WHITEMAN AFB   SUNNY     70  58  66 W5        30.08R
WARRENSBURG    SUNNY     70  57  64 CALM      30.08R

$$
MOZ051-052-059>065-271500-
...EAST CENTRAL MISSOURI...

CITY           SKY/WX    TMP DP  RH WIND       PRES   REMARKS
ST LOUIS INTL  CLOUDY    70  60  70 SW13      30.06F
SPIRIT OF STL  CLOUDY    69  62  78 S6        30.05F
ST CHARLES     CLOUDY    71  63  75 SW14      30.05S

$$
MOZ072>076-082>087-097>100-106>115-271500-
...SOUTH CENTRAL AND SOUTHEAST MISSOURI...

CITY           SKY/WX    TMP DP  RH WIND       PRES   REMARKS
CAPE GIRARDEAU CLOUDY    69  63  81 W10       30.14R
FARMINGTON     CLOUDY    61  59  94 E15       30.06F
POPLAR BLUFF   LGT RAIN  68  60  75 N9        30.13R
WEST PLAINS    CLOUDY    66  61  84 S5        30.14R

$$



USA.gov is the U.S. government's official web portal to all federal, state and local government web resources and services.